,,,PA_Meas_PMT16A,,PR_Meas_QMR101_102,,RH_Meas_QMH101,,SR_Meas_QMS101,,TA_Meas_QMH101,,GenWind,,GenWind,
date,time,status,PA,status,PR,status,RH,status,SR,status,TA,status,DirAvg,status,SpdAvg,
2014-03-13, 00:00:04,VALID,1011.38,VALID,0,VALID,104,VALID,0,VALID,24.1617,VALID,317,VALID,0.345703,
2014-03-13, 00:01:04,VALID,1011.35,VALID,0,VALID,104,VALID,0,VALID,24.1209,VALID,317,VALID,0.0945313,
2014-03-13, 00:02:04,VALID,1011.34,VALID,0,VALID,104,VALID,0,VALID,24.1404,VALID,317,VALID,0.549609,
2014-03-13, 00:03:04,VALID,1011.32,VALID,0,VALID,104,VALID,0,VALID,24.1422,VALID,317,VALID,0.256641,
2014-03-13, 00:04:04,VALID,1011.3,VALID,0,VALID,104,VALID,0,VALID,24.1209,VALID,317,VALID,0,
2014-03-13, 00:05:04,VALID,1011.27,VALID,0,VALID,104,VALID,0,VALID,24.1209,VALID,317,VALID,0,
2014-03-13, 00:06:04,VALID,1011.25,VALID,0,VALID,104,VALID,0,VALID,24.1227,VALID,317,VALID,0,
2014-03-13, 00:07:04,VALID,1011.19,VALID,0,VALID,104,VALID,0,VALID,24.1227,VALID,317,VALID,0,
2014-03-13, 00:08:04,VALID,1011.17,VALID,0,VALID,104,VALID,0,VALID,24.1014,VALID,317,VALID,0.410547,
2014-03-13, 00:09:04,VALID,1011.14,VALID,0,VALID,104,VALID,0,VALID,24.1227,VALID,317,VALID,0.360156,
2014-03-13, 00:10:04,VALID,1011.13,VALID,0,VALID,104,VALID,0,VALID,24.1014,VALID,317,VALID,0.383203,
2014-03-13, 00:11:04,VALID,1011.12,VALID,0,VALID,104,VALID,0,VALID,24.1014,VALID,317,VALID,0.104687,
2014-03-13, 00:12:04,VALID,1011.09,VALID,0,VALID,104,VALID,0,VALID,24.1227,VALID,317,VALID,0.362891,
2014-03-13, 00:13:04,VALID,1011.08,VALID,0,VALID,104,VALID,0,VALID,24.1227,VALID,317,VALID,0.325,
2014-03-13, 00:14:04,VALID,1011.07,VALID,0,VALID,104,VALID,0,VALID,24.1422,VALID,317,VALID,0.0078125,
2014-03-13, 00:15:04,VALID,1011.07,VALID,0,VALID,104,VALID,0,VALID,24.1209,VALID,317,VALID,0,
2014-03-13, 00:16:04,VALID,1011.06,VALID,0,VALID,104,VALID,0,VALID,24.1227,VALID,317,VALID,0.428516,
2014-03-13, 00:17:04,VALID,1011.06,VALID,0,VALID,104,VALID,0,VALID,24.1422,VALID,317,VALID,0.688672,
2014-03-13, 00:18:04,VALID,1011.04,VALID,0,VALID,104,VALID,0,VALID,24.1227,VALID,317,VALID,0.230078,
2014-03-13, 00:19:04,VALID,1011.06,VALID,0,VALID,104,VALID,0,VALID,24.1227,VALID,317,VALID,0,
2014-03-13, 00:20:04,VALID,1011.05,VALID,0,VALID,104,VALID,0,VALID,24.1227,VALID,317,VALID,0.569922,
2014-03-13, 00:21:04,VALID,1011.02,VALID,0,VALID,104,VALID,0,VALID,24.1032,VALID,317,VALID,0.530859,
2014-03-13, 00:22:04,VALID,1011.04,VALID,0,VALID,104,VALID,0,VALID,24.1032,VALID,317,VALID,0,
2014-03-13, 00:23:04,VALID,1011,VALID,0,VALID,104,VALID,0,VALID,24.0837,VALID,317,VALID,0,
2014-03-13, 00:24:04,VALID,1010.99,VALID,0,VALID,104,VALID,0,VALID,24.0837,VALID,317,VALID,0,
2014-03-13, 00:25:04,VALID,1010.98,VALID,0,VALID,104,VALID,0,VALID,24.1032,VALID,317,VALID,0.568359,
2014-03-13, 00:26:04,VALID,1010.97,VALID,0,VALID,104,VALID,0,VALID,24.0624,VALID,317,VALID,0.367188,
2014-03-13, 00:27:04,VALID,1010.94,VALID,0,VALID,104,VALID,0,VALID,24.0429,VALID,317,VALID,0.226172,
2014-03-13, 00:28:04,VALID,1010.93,VALID,0,VALID,104,VALID,0,VALID,24.0429,VALID,318,VALID,0,
2014-03-13, 00:29:04,VALID,1010.9,VALID,0,VALID,104,VALID,0,VALID,24.0429,VALID,318,VALID,0,
2014-03-13, 00:30:04,VALID,1010.93,VALID,0,VALID,104,VALID,0,VALID,24.0448,VALID,317,VALID,0,
2014-03-13, 00:31:04,VALID,1010.89,VALID,0,VALID,104,VALID,0,VALID,24.0448,VALID,317,VALID,0,
2014-03-13, 00:32:04,VALID,1010.9,VALID,0,VALID,104,VALID,0,VALID,24.0448,VALID,316,VALID,0,
2014-03-13, 00:33:04,VALID,1010.91,VALID,0,VALID,104,VALID,0,VALID,24.004,VALID,317,VALID,0,
2014-03-13, 00:34:04,VALID,1010.91,VALID,0,VALID,104,VALID,0,VALID,24.0253,VALID,318,VALID,0,
2014-03-13, 00:35:04,VALID,1010.92,VALID,0,VALID,104,VALID,0,VALID,24.0253,VALID,317,VALID,0,
2014-03-13, 00:36:04,VALID,1010.92,VALID,0,VALID,104,VALID,0,VALID,24.0058,VALID,317,VALID,0,
2014-03-13, 00:37:04,VALID,1010.94,VALID,0,VALID,104,VALID,0,VALID,24.0058,VALID,317,VALID,0,
2014-03-13, 00:38:04,VALID,1010.93,VALID,0,VALID,104,VALID,0,VALID,24.0058,VALID,317,VALID,0,
2014-03-13, 00:39:04,VALID,1010.93,VALID,0,VALID,104,VALID,0,VALID,24.0271,VALID,317,VALID,0,
2014-03-13, 00:40:04,VALID,1010.91,VALID,0,VALID,104,VALID,0,VALID,24.0058,VALID,317,VALID,0,
2014-03-13, 00:41:04,VALID,1010.92,VALID,0,VALID,104,VALID,0,VALID,24.0058,VALID,317,VALID,0,
2014-03-13, 00:42:05,VALID,1010.87,VALID,0,VALID,104,VALID,0,VALID,24.004,VALID,317,VALID,0,
2014-03-13, 00:43:05,VALID,1010.83,VALID,0,VALID,104,VALID,0,VALID,24.0058,VALID,317,VALID,0,
2014-03-13, 00:44:05,VALID,1010.82,VALID,0,VALID,104,VALID,0,VALID,23.9863,VALID,317,VALID,0,
2014-03-13, 00:45:05,VALID,1010.81,VALID,0,VALID,104,VALID,0,VALID,24.0058,VALID,317,VALID,0,
2014-03-13, 00:46:05,VALID,1010.76,VALID,0,VALID,104,VALID,0,VALID,23.9863,VALID,317,VALID,0,
2014-03-13, 00:47:05,VALID,1010.75,VALID,0,VALID,104,VALID,0,VALID,23.9845,VALID,317,VALID,0,
2014-03-13, 00:48:05,VALID,1010.72,VALID,0,VALID,104,VALID,0,VALID,24.0058,VALID,317,VALID,0,
2014-03-13, 00:49:05,VALID,1010.71,VALID,0,VALID,104,VALID,0,VALID,23.9863,VALID,317,VALID,0,
2014-03-13, 00:50:05,VALID,1010.72,VALID,0,VALID,104,VALID,0,VALID,23.9863,VALID,317,VALID,0,
2014-03-13, 00:51:05,VALID,1010.69,VALID,0,VALID,104,VALID,0,VALID,23.9863,VALID,317,VALID,0,
2014-03-13, 00:52:05,VALID,1010.71,VALID,0,VALID,104,VALID,0,VALID,24.0253,VALID,317,VALID,0,
2014-03-13, 00:53:05,VALID,1010.68,VALID,0,VALID,104,VALID,0,VALID,24.0058,VALID,317,VALID,0,
2014-03-13, 00:54:05,VALID,1010.67,VALID,0,VALID,104,VALID,0,VALID,23.9845,VALID,317,VALID,0,
2014-03-13, 00:55:05,VALID,1010.64,VALID,0,VALID,104,VALID,0,VALID,24.0253,VALID,317,VALID,0,
2014-03-13, 00:56:05,VALID,1010.63,VALID,0,VALID,104,VALID,0,VALID,24.0058,VALID,317,VALID,0,
2014-03-13, 00:57:05,VALID,1010.64,VALID,0,VALID,104,VALID,0.112112,VALID,24.0235,VALID,317,VALID,0,
2014-03-13, 00:58:05,VALID,1010.62,VALID,0,VALID,104,VALID,0,VALID,24.0216,VALID,317,VALID,0,
2014-03-13, 00:59:05,VALID,1010.61,VALID,0,VALID,104,VALID,0.112112,VALID,24.0429,VALID,317,VALID,0,
2014-03-13, 01:00:05,VALID,1010.6,VALID,0,VALID,104,VALID,0.112112,VALID,24.0235,VALID,317,VALID,0,
2014-03-13, 01:01:05,VALID,1010.63,VALID,0,VALID,104,VALID,0.112112,VALID,24.0235,VALID,317,VALID,0,
2014-03-13, 01:02:05,VALID,1010.62,VALID,0,VALID,104,VALID,0.112112,VALID,24.0429,VALID,317,VALID,0,
2014-03-13, 01:03:05,VALID,1010.6,VALID,0,VALID,104,VALID,0.112112,VALID,24.0429,VALID,317,VALID,0,
2014-03-13, 01:04:05,VALID,1010.6,VALID,0,VALID,104,VALID,0,VALID,24.0235,VALID,317,VALID,0,
2014-03-13, 01:05:05,VALID,1010.62,VALID,0,VALID,104,VALID,0.112112,VALID,24.0235,VALID,317,VALID,0,
2014-03-13, 01:06:05,VALID,1010.6,VALID,0,VALID,104,VALID,0.112112,VALID,24.0235,VALID,317,VALID,0,
2014-03-13, 01:07:05,VALID,1010.61,VALID,0,VALID,104,VALID,0.112112,VALID,24.004,VALID,317,VALID,0,
2014-03-13, 01:08:05,VALID,1010.59,VALID,0,VALID,104,VALID,0.112112,VALID,24.0235,VALID,317,VALID,0,
2014-03-13, 01:09:05,VALID,1010.57,VALID,0,VALID,104,VALID,0.112112,VALID,23.9845,VALID,317,VALID,0,
2014-03-13, 01:10:05,VALID,1010.58,VALID,0,VALID,104,VALID,0.112112,VALID,23.9845,VALID,317,VALID,0,
2014-03-13, 01:11:05,VALID,1010.59,VALID,0,VALID,104,VALID,0.112112,VALID,23.9845,VALID,317,VALID,0,
2014-03-13, 01:12:05,VALID,1010.6,VALID,0,VALID,104,VALID,0,VALID,23.9863,VALID,317,VALID,0,
2014-03-13, 01:13:05,VALID,1010.62,VALID,0,VALID,104,VALID,0,VALID,23.9845,VALID,317,VALID,0,
2014-03-13, 01:14:05,VALID,1010.64,VALID,0,VALID,104,VALID,0,VALID,23.9863,VALID,316,VALID,0,
2014-03-13, 01:15:05,VALID,1010.64,VALID,0,VALID,104,VALID,0,VALID,23.965,VALID,316,VALID,0,
2014-03-13, 01:16:05,VALID,1010.65,VALID,0,VALID,104,VALID,0,VALID,23.965,VALID,317,VALID,0,
2014-03-13, 01:17:05,VALID,1010.65,VALID,0,VALID,104,VALID,0,VALID,23.9668,VALID,317,VALID,0,
2014-03-13, 01:18:05,VALID,1010.68,VALID,0,VALID,104,VALID,0,VALID,23.9473,VALID,317,VALID,0,
2014-03-13, 01:19:05,VALID,1010.69,VALID,0,VALID,104,VALID,0,VALID,23.9668,VALID,317,VALID,0,
2014-03-13, 01:20:05,VALID,1010.69,VALID,0,VALID,104,VALID,0,VALID,23.926,VALID,317,VALID,0,
2014-03-13, 01:21:05,VALID,1010.69,VALID,0,VALID,104,VALID,0,VALID,23.9473,VALID,317,VALID,0,
2014-03-13, 01:22:05,VALID,1010.69,VALID,0,VALID,104,VALID,0,VALID,23.926,VALID,317,VALID,0,
2014-03-13, 01:23:05,VALID,1010.7,VALID,0,VALID,104,VALID,0,VALID,23.9473,VALID,316,VALID,0,
2014-03-13, 01:24:05,VALID,1010.7,VALID,0,VALID,104,VALID,0,VALID,23.926,VALID,316,VALID,0,
2014-03-13, 01:25:05,VALID,1010.66,VALID,0,VALID,104,VALID,0,VALID,23.926,VALID,316,VALID,0,
2014-03-13, 01:26:05,VALID,1010.65,VALID,0,VALID,104,VALID,0,VALID,23.9065,VALID,318,VALID,0,
2014-03-13, 01:27:05,VALID,1010.62,VALID,0,VALID,104,VALID,0,VALID,23.9278,VALID,316,VALID,0,
2014-03-13, 01:28:05,VALID,1010.6,VALID,0,VALID,104,VALID,0,VALID,23.9278,VALID,317,VALID,0,
2014-03-13, 01:29:05,VALID,1010.61,VALID,0,VALID,104,VALID,0,VALID,23.9065,VALID,318,VALID,0,
2014-03-13, 01:30:05,VALID,1010.57,VALID,0,VALID,104,VALID,0,VALID,23.9473,VALID,316,VALID,0,
2014-03-13, 01:31:05,VALID,1010.56,VALID,0,VALID,104,VALID,0,VALID,23.926,VALID,317,VALID,0,
2014-03-13, 01:32:05,VALID,1010.51,VALID,0,VALID,104,VALID,0.112112,VALID,23.926,VALID,317,VALID,0,
2014-03-13, 01:33:05,VALID,1010.5,VALID,0,VALID,104,VALID,0,VALID,23.9668,VALID,317,VALID,0,
2014-03-13, 01:34:05,VALID,1010.46,VALID,0,VALID,104,VALID,0,VALID,23.9668,VALID,317,VALID,0,
2014-03-13, 01:35:05,VALID,1010.48,VALID,0,VALID,104,VALID,0,VALID,23.9863,VALID,318,VALID,0,
2014-03-13, 01:36:05,VALID,1010.48,VALID,0,VALID,104,VALID,0,VALID,23.965,VALID,317,VALID,0,
2014-03-13, 01:37:05,VALID,1010.44,VALID,0,VALID,104,VALID,0,VALID,23.9668,VALID,318,VALID,0,
2014-03-13, 01:38:05,VALID,1010.43,VALID,0,VALID,104,VALID,0,VALID,23.9845,VALID,317,VALID,0,
2014-03-13, 01:39:05,VALID,1010.45,VALID,0,VALID,104,VALID,0,VALID,23.9845,VALID,317,VALID,0,
2014-03-13, 01:40:05,VALID,1010.49,VALID,0,VALID,104,VALID,0,VALID,23.9863,VALID,317,VALID,0,
2014-03-13, 01:41:05,VALID,1010.49,VALID,0,VALID,104,VALID,0,VALID,23.9668,VALID,317,VALID,0,
2014-03-13, 01:42:05,VALID,1010.54,VALID,0,VALID,104,VALID,0,VALID,23.9668,VALID,317,VALID,0,
2014-03-13, 01:43:05,VALID,1010.49,VALID,0,VALID,104,VALID,0,VALID,23.9668,VALID,317,VALID,0,
2014-03-13, 01:44:05,VALID,1010.5,VALID,0,VALID,104,VALID,0,VALID,23.926,VALID,316,VALID,0,
2014-03-13, 01:45:05,VALID,1010.51,VALID,0,VALID,104,VALID,0,VALID,23.926,VALID,317,VALID,0,
2014-03-13, 01:46:05,VALID,1010.51,VALID,0,VALID,104,VALID,0.112112,VALID,23.9473,VALID,317,VALID,0,
2014-03-13, 01:47:05,VALID,1010.49,VALID,0,VALID,104,VALID,0,VALID,23.926,VALID,316,VALID,0,
2014-03-13, 01:48:05,VALID,1010.45,VALID,0,VALID,104,VALID,0,VALID,23.9473,VALID,317,VALID,0,
2014-03-13, 01:49:05,VALID,1010.44,VALID,0,VALID,104,VALID,0,VALID,23.9473,VALID,318,VALID,0,
2014-03-13, 01:50:05,VALID,1010.42,VALID,0,VALID,104,VALID,0,VALID,23.9278,VALID,318,VALID,0,
2014-03-13, 01:51:05,VALID,1010.4,VALID,0,VALID,104,VALID,0.112112,VALID,23.9278,VALID,317,VALID,0,
2014-03-13, 01:52:05,VALID,1010.4,VALID,0,VALID,104,VALID,0,VALID,23.9065,VALID,317,VALID,0,
2014-03-13, 01:53:05,VALID,1010.39,VALID,0,VALID,104,VALID,0,VALID,23.9278,VALID,318,VALID,0,
2014-03-13, 01:54:05,VALID,1010.39,VALID,0,VALID,104,VALID,0,VALID,23.9065,VALID,317,VALID,0,
2014-03-13, 01:55:05,VALID,1010.38,VALID,0,VALID,104,VALID,0,VALID,23.9084,VALID,318,VALID,0,
2014-03-13, 01:56:05,VALID,1010.34,VALID,0,VALID,104,VALID,0,VALID,23.9065,VALID,317,VALID,0,
2014-03-13, 01:57:05,VALID,1010.34,VALID,0,VALID,104,VALID,0.112112,VALID,23.9278,VALID,318,VALID,0,
2014-03-13, 01:58:05,VALID,1010.31,VALID,0,VALID,104,VALID,0,VALID,23.9065,VALID,318,VALID,0,
2014-03-13, 01:59:05,VALID,1010.33,VALID,0,VALID,104,VALID,0.112112,VALID,23.8871,VALID,318,VALID,0,
2014-03-13, 02:00:05,VALID,1010.29,VALID,0,VALID,104,VALID,0,VALID,23.9084,VALID,317,VALID,0,
2014-03-13, 02:01:05,VALID,1010.27,VALID,0,VALID,104,VALID,0,VALID,23.8871,VALID,317,VALID,0,
2014-03-13, 02:02:05,VALID,1010.29,VALID,0,VALID,104,VALID,0,VALID,23.9084,VALID,317,VALID,0,
2014-03-13, 02:03:05,VALID,1010.29,VALID,0,VALID,104,VALID,0,VALID,23.8889,VALID,318,VALID,0,
2014-03-13, 02:04:05,VALID,1010.24,VALID,0,VALID,104,VALID,0,VALID,23.8676,VALID,317,VALID,0,
2014-03-13, 02:05:05,VALID,1010.22,VALID,0,VALID,104,VALID,0,VALID,23.8676,VALID,317,VALID,0,
2014-03-13, 02:06:05,VALID,1010.22,VALID,0,VALID,104,VALID,0,VALID,23.8676,VALID,317,VALID,0,
2014-03-13, 02:07:05,VALID,1010.19,VALID,0,VALID,104,VALID,0.112112,VALID,23.8676,VALID,317,VALID,0,
2014-03-13, 02:08:05,VALID,1010.17,VALID,0,VALID,104,VALID,0,VALID,23.8676,VALID,317,VALID,0,
2014-03-13, 02:09:05,VALID,1010.17,VALID,0,VALID,104,VALID,0,VALID,23.8694,VALID,317,VALID,0,
2014-03-13, 02:10:05,VALID,1010.13,VALID,0,VALID,104,VALID,0,VALID,23.8694,VALID,317,VALID,0,
2014-03-13, 02:11:05,VALID,1010.15,VALID,0,VALID,104,VALID,0,VALID,23.8499,VALID,318,VALID,0,
2014-03-13, 02:12:05,VALID,1010.15,VALID,0,VALID,104,VALID,0,VALID,23.8304,VALID,318,VALID,0,
2014-03-13, 02:13:05,VALID,1010.15,VALID,0,VALID,104,VALID,0,VALID,23.8304,VALID,317,VALID,0,
2014-03-13, 02:14:05,VALID,1010.14,VALID,0,VALID,104,VALID,0,VALID,23.8109,VALID,317,VALID,0,
2014-03-13, 02:15:05,VALID,1010.15,VALID,0,VALID,104,VALID,0,VALID,23.8304,VALID,316,VALID,0,
2014-03-13, 02:16:05,VALID,1010.13,VALID,0,VALID,104,VALID,0,VALID,23.8109,VALID,318,VALID,0,
2014-03-13, 02:17:05,VALID,1010.11,VALID,0,VALID,104,VALID,0,VALID,23.8109,VALID,317,VALID,0,
2014-03-13, 02:18:05,VALID,1010.15,VALID,0,VALID,104,VALID,0,VALID,23.7914,VALID,317,VALID,0,
2014-03-13, 02:19:05,VALID,1010.11,VALID,0,VALID,104,VALID,0,VALID,23.7896,VALID,316,VALID,0,
2014-03-13, 02:20:05,VALID,1010.11,VALID,0,VALID,104,VALID,0,VALID,23.8109,VALID,317,VALID,0,
2014-03-13, 02:21:05,VALID,1010.07,VALID,0,VALID,104,VALID,0,VALID,23.7914,VALID,317,VALID,0,
2014-03-13, 02:22:05,VALID,1010.08,VALID,0,VALID,104,VALID,0,VALID,23.7914,VALID,317,VALID,0,
2014-03-13, 02:23:05,VALID,1010.06,VALID,0,VALID,104,VALID,0,VALID,23.8109,VALID,318,VALID,0,
2014-03-13, 02:24:05,VALID,1010.05,VALID,0,VALID,104,VALID,0,VALID,23.8109,VALID,316,VALID,0,
2014-03-13, 02:25:05,VALID,1010.02,VALID,0,VALID,104,VALID,0,VALID,23.7914,VALID,317,VALID,0,
2014-03-13, 02:26:05,VALID,1010.02,VALID,0,VALID,104,VALID,0,VALID,23.8109,VALID,19,VALID,0,
2014-03-13, 02:27:05,VALID,1010,VALID,0,VALID,104,VALID,0,VALID,23.7914,VALID,38,VALID,0,
2014-03-13, 02:28:05,VALID,1010,VALID,0,VALID,104,VALID,0,VALID,23.7914,VALID,37,VALID,0,
2014-03-13, 02:29:05,VALID,1009.99,VALID,0,VALID,104,VALID,0,VALID,23.7914,VALID,37,VALID,0,
2014-03-13, 02:30:05,VALID,1009.99,VALID,0,VALID,104,VALID,0,VALID,23.7914,VALID,37,VALID,0,
2014-03-13, 02:31:05,VALID,1009.93,VALID,0,VALID,104,VALID,0,VALID,23.7914,VALID,37,VALID,0,
2014-03-13, 02:32:05,VALID,1009.95,VALID,0,VALID,104,VALID,0,VALID,23.8109,VALID,37,VALID,0,
2014-03-13, 02:33:05,VALID,1009.93,VALID,0,VALID,104,VALID,0,VALID,23.8109,VALID,37,VALID,0,
2014-03-13, 02:34:05,VALID,1009.9,VALID,0,VALID,104,VALID,0,VALID,23.8109,VALID,38,VALID,0,
2014-03-13, 02:35:05,VALID,1009.9,VALID,0,VALID,104,VALID,0,VALID,23.8109,VALID,37,VALID,0,
2014-03-13, 02:36:05,VALID,1009.9,VALID,0,VALID,104,VALID,0,VALID,23.8304,VALID,38,VALID,0,
2014-03-13, 02:37:05,VALID,1009.92,VALID,0,VALID,104,VALID,0,VALID,23.7896,VALID,37,VALID,0,
2014-03-13, 02:38:05,VALID,1009.94,VALID,0,VALID,104,VALID,0,VALID,23.8304,VALID,40,VALID,0,
2014-03-13, 02:39:05,VALID,1009.92,VALID,0,VALID,104,VALID,0,VALID,23.8517,VALID,40,VALID,0,
2014-03-13, 02:40:05,VALID,1009.93,VALID,0,VALID,104,VALID,0,VALID,23.8109,VALID,40,VALID,0,
2014-03-13, 02:41:05,VALID,1009.91,VALID,0,VALID,104,VALID,0,VALID,23.8109,VALID,40,VALID,0,
2014-03-13, 02:42:05,VALID,1009.88,VALID,0,VALID,104,VALID,0,VALID,23.8109,VALID,40,VALID,0,
2014-03-13, 02:43:05,VALID,1009.91,VALID,0,VALID,104,VALID,0,VALID,23.8304,VALID,40,VALID,0,
2014-03-13, 02:44:05,VALID,1009.89,VALID,0,VALID,104,VALID,0,VALID,23.8109,VALID,40,VALID,0,
2014-03-13, 02:45:05,VALID,1009.92,VALID,0,VALID,104,VALID,0,VALID,23.8109,VALID,40,VALID,0,
2014-03-13, 02:46:05,VALID,1009.89,VALID,0,VALID,104,VALID,0,VALID,23.8109,VALID,40,VALID,0,
2014-03-13, 02:47:05,VALID,1009.88,VALID,0,VALID,104,VALID,0,VALID,23.8109,VALID,40,VALID,0,
2014-03-13, 02:48:05,VALID,1009.89,VALID,0,VALID,104,VALID,0,VALID,23.8304,VALID,40,VALID,0,
2014-03-13, 02:49:05,VALID,1009.87,VALID,0,VALID,104,VALID,0,VALID,23.8322,VALID,40,VALID,0,
2014-03-13, 02:50:05,VALID,1009.88,VALID,0,VALID,104,VALID,0,VALID,23.8109,VALID,40,VALID,0,
2014-03-13, 02:51:05,VALID,1009.85,VALID,0,VALID,104,VALID,0,VALID,23.8109,VALID,40,VALID,0,
2014-03-13, 02:52:05,VALID,1009.86,VALID,0,VALID,104,VALID,0,VALID,23.8109,VALID,40,VALID,0,
2014-03-13, 02:53:05,VALID,1009.85,VALID,0,VALID,104,VALID,0,VALID,23.8304,VALID,40,VALID,0,
2014-03-13, 02:54:05,VALID,1009.85,VALID,0,VALID,104,VALID,0,VALID,23.8109,VALID,40,VALID,0,
2014-03-13, 02:55:05,VALID,1009.86,VALID,0,VALID,104,VALID,0,VALID,23.8109,VALID,40,VALID,0,
2014-03-13, 02:56:05,VALID,1009.85,VALID,0,VALID,104,VALID,0,VALID,23.8109,VALID,40,VALID,0,
2014-03-13, 02:57:05,VALID,1009.86,VALID,0,VALID,104,VALID,0,VALID,23.8109,VALID,40,VALID,0,
2014-03-13, 02:58:05,VALID,1009.82,VALID,0,VALID,104,VALID,0,VALID,23.8304,VALID,41,VALID,0,
2014-03-13, 02:59:05,VALID,1009.84,VALID,0,VALID,104,VALID,0,VALID,23.8304,VALID,41,VALID,0,
2014-03-13, 03:00:05,VALID,1009.86,VALID,0,VALID,104,VALID,0,VALID,23.8499,VALID,40,VALID,0,
2014-03-13, 03:01:05,VALID,1009.85,VALID,0,VALID,104,VALID,0,VALID,23.8499,VALID,40,VALID,0,
2014-03-13, 03:02:05,VALID,1009.85,VALID,0,VALID,104,VALID,0,VALID,23.8499,VALID,40,VALID,0,
2014-03-13, 03:03:05,VALID,1009.82,VALID,0,VALID,104,VALID,0,VALID,23.8499,VALID,40,VALID,0,
2014-03-13, 03:04:05,VALID,1009.88,VALID,0,VALID,104,VALID,0,VALID,23.8499,VALID,40,VALID,0,
2014-03-13, 03:05:05,VALID,1009.88,VALID,0,VALID,104,VALID,0,VALID,23.8499,VALID,40,VALID,0,
2014-03-13, 03:06:05,VALID,1009.87,VALID,0,VALID,104,VALID,0,VALID,23.8499,VALID,40,VALID,0,
2014-03-13, 03:07:05,VALID,1009.92,VALID,0,VALID,104,VALID,0,VALID,23.8304,VALID,40,VALID,0,
2014-03-13, 03:08:05,VALID,1009.88,VALID,0,VALID,104,VALID,0,VALID,23.8499,VALID,40,VALID,0,
2014-03-13, 03:09:05,VALID,1009.87,VALID,0,VALID,104,VALID,0,VALID,23.8499,VALID,41,VALID,0,
2014-03-13, 03:10:05,VALID,1009.87,VALID,0,VALID,104,VALID,0,VALID,23.8499,VALID,76,VALID,0,
2014-03-13, 03:11:05,VALID,1009.86,VALID,0,VALID,104,VALID,0,VALID,23.8499,VALID,76,VALID,0,
2014-03-13, 03:12:05,VALID,1009.83,VALID,0,VALID,104,VALID,0,VALID,23.8499,VALID,76,VALID,0,
2014-03-13, 03:13:05,VALID,1009.85,VALID,0,VALID,104,VALID,0,VALID,23.8286,VALID,76,VALID,0,
2014-03-13, 03:14:05,VALID,1009.85,VALID,0,VALID,104,VALID,0.112112,VALID,23.8286,VALID,76,VALID,0,
2014-03-13, 03:15:05,VALID,1009.82,VALID,0,VALID,104,VALID,0,VALID,23.8286,VALID,76,VALID,0,
2014-03-13, 03:16:05,VALID,1009.83,VALID,0,VALID,104,VALID,0,VALID,23.8304,VALID,76,VALID,0,
2014-03-13, 03:17:05,VALID,1009.82,VALID,0,VALID,104,VALID,0,VALID,23.8109,VALID,76,VALID,0,
2014-03-13, 03:18:05,VALID,1009.82,VALID,0,VALID,104,VALID,0,VALID,23.8109,VALID,76,VALID,0,
2014-03-13, 03:19:05,VALID,1009.81,VALID,0,VALID,104,VALID,0,VALID,23.7896,VALID,76,VALID,0,
2014-03-13, 03:20:05,VALID,1009.8,VALID,0,VALID,104,VALID,0,VALID,23.7914,VALID,76,VALID,0,
2014-03-13, 03:21:05,VALID,1009.79,VALID,0,VALID,104,VALID,0.112112,VALID,23.7896,VALID,76,VALID,0,
2014-03-13, 03:22:05,VALID,1009.78,VALID,0,VALID,104,VALID,0,VALID,23.7701,VALID,76,VALID,0,
2014-03-13, 03:23:04,VALID,1009.82,VALID,0,VALID,104,VALID,0,VALID,23.7507,VALID,76,VALID,0,
2014-03-13, 03:24:04,VALID,1009.81,VALID,0,VALID,104,VALID,0,VALID,23.7507,VALID,76,VALID,0,
2014-03-13, 03:25:04,VALID,1009.8,VALID,0,VALID,104,VALID,0,VALID,23.7701,VALID,76,VALID,0,
2014-03-13, 03:26:04,VALID,1009.82,VALID,0,VALID,104,VALID,0,VALID,23.772,VALID,76,VALID,0,
2014-03-13, 03:27:04,VALID,1009.82,VALID,0,VALID,104,VALID,0,VALID,23.7507,VALID,76,VALID,0,
2014-03-13, 03:28:04,VALID,1009.83,VALID,0,VALID,104,VALID,0,VALID,23.7507,VALID,76,VALID,0,
2014-03-13, 03:29:04,VALID,1009.82,VALID,0,VALID,104,VALID,0.112112,VALID,23.7507,VALID,76,VALID,0,
2014-03-13, 03:30:04,VALID,1009.84,VALID,0,VALID,104,VALID,0,VALID,23.7525,VALID,76,VALID,0,
2014-03-13, 03:31:04,VALID,1009.82,VALID,0,VALID,104,VALID,0.112112,VALID,23.7117,VALID,76,VALID,0,
2014-03-13, 03:32:04,VALID,1009.84,VALID,0,VALID,104,VALID,0,VALID,23.7117,VALID,76,VALID,0,
2014-03-13, 03:33:04,VALID,1009.85,VALID,0,VALID,104,VALID,0,VALID,23.7117,VALID,76,VALID,0,
2014-03-13, 03:34:04,VALID,1009.82,VALID,0,VALID,104,VALID,0.112112,VALID,23.7117,VALID,76,VALID,0,
2014-03-13, 03:35:04,VALID,1009.83,VALID,0,VALID,104,VALID,0,VALID,23.7117,VALID,76,VALID,0,
2014-03-13, 03:36:04,VALID,1009.83,VALID,0,VALID,104,VALID,0.112112,VALID,23.733,VALID,76,VALID,0,
2014-03-13, 03:37:04,VALID,1009.82,VALID,0,VALID,104,VALID,0,VALID,23.7135,VALID,76,VALID,0,
2014-03-13, 03:38:04,VALID,1009.8,VALID,0,VALID,104,VALID,0,VALID,23.6922,VALID,76,VALID,0,
2014-03-13, 03:39:04,VALID,1009.83,VALID,0,VALID,104,VALID,0,VALID,23.6745,VALID,76,VALID,0,
2014-03-13, 03:40:04,VALID,1009.83,VALID,0,VALID,104,VALID,0,VALID,23.6338,VALID,76,VALID,0,
2014-03-13, 03:41:04,VALID,1009.84,VALID,0,VALID,104,VALID,0,VALID,23.6356,VALID,76,VALID,0,
2014-03-13, 03:42:04,VALID,1009.85,VALID,0,VALID,104,VALID,0,VALID,23.6143,VALID,76,VALID,0,
2014-03-13, 03:43:04,VALID,1009.84,VALID,0,VALID,104,VALID,0,VALID,23.6143,VALID,76,VALID,0,
2014-03-13, 03:44:04,VALID,1009.86,VALID,0,VALID,104,VALID,0,VALID,23.6161,VALID,76,VALID,0,
2014-03-13, 03:45:04,VALID,1009.85,VALID,0,VALID,104,VALID,0,VALID,23.6161,VALID,76,VALID,0,
2014-03-13, 03:46:04,VALID,1009.84,VALID,0,VALID,104,VALID,0,VALID,23.5948,VALID,76,VALID,0,
2014-03-13, 03:47:04,VALID,1009.82,VALID,0,VALID,104,VALID,0,VALID,23.5948,VALID,76,VALID,0,
2014-03-13, 03:48:04,VALID,1009.86,VALID,0,VALID,104,VALID,0,VALID,23.5753,VALID,76,VALID,0,
2014-03-13, 03:49:04,VALID,1009.86,VALID,0.5,VALID,104,VALID,0,VALID,23.5753,VALID,76,VALID,0,
2014-03-13, 03:50:04,VALID,1009.83,VALID,0,VALID,104,VALID,0,VALID,23.5753,VALID,76,VALID,0,
2014-03-13, 03:51:04,VALID,1009.81,VALID,0,VALID,104,VALID,0,VALID,23.5753,VALID,76,VALID,0,
2014-03-13, 03:52:04,VALID,1009.81,VALID,0,VALID,104,VALID,0,VALID,23.5576,VALID,76,VALID,0,
2014-03-13, 03:53:04,VALID,1009.78,VALID,0,VALID,104,VALID,0,VALID,23.5576,VALID,76,VALID,0,
2014-03-13, 03:54:04,VALID,1009.77,VALID,0,VALID,104,VALID,0,VALID,23.5381,VALID,76,VALID,0,
2014-03-13, 03:55:04,VALID,1009.75,VALID,0,VALID,104,VALID,0,VALID,23.5576,VALID,76,VALID,0,
2014-03-13, 03:56:04,VALID,1009.74,VALID,0,VALID,104,VALID,0,VALID,23.5169,VALID,76,VALID,0,
2014-03-13, 03:57:04,VALID,1009.72,VALID,0,VALID,104,VALID,0,VALID,23.5186,VALID,76,VALID,0,
2014-03-13, 03:58:04,VALID,1009.75,VALID,0,VALID,104,VALID,0,VALID,23.4992,VALID,76,VALID,0,
2014-03-13, 03:59:04,VALID,1009.73,VALID,0,VALID,104,VALID,0,VALID,23.4992,VALID,76,VALID,0,
2014-03-13, 04:00:04,VALID,1009.73,VALID,0,VALID,104,VALID,0,VALID,23.4797,VALID,76,VALID,0,
2014-03-13, 04:01:04,VALID,1009.72,VALID,0,VALID,104,VALID,0,VALID,23.4797,VALID,76,VALID,0,
2014-03-13, 04:02:04,VALID,1009.73,VALID,0,VALID,104,VALID,0,VALID,23.4797,VALID,76,VALID,0,
2014-03-13, 04:03:04,VALID,1009.73,VALID,0,VALID,104,VALID,0,VALID,23.5009,VALID,76,VALID,0,
2014-03-13, 04:04:04,VALID,1009.75,VALID,0,VALID,104,VALID,0,VALID,23.4992,VALID,76,VALID,0,
2014-03-13, 04:05:04,VALID,1009.7,VALID,0,VALID,104,VALID,0,VALID,23.4992,VALID,76,VALID,0,
2014-03-13, 04:06:04,VALID,1009.71,VALID,0,VALID,104,VALID,0,VALID,23.4992,VALID,76,VALID,0,
2014-03-13, 04:07:04,VALID,1009.68,VALID,0,VALID,104,VALID,0,VALID,23.4992,VALID,76,VALID,0,